Tracking 17155 objects as of 30-July-2015
HD Live streaming from Space Station

COSMOS 2315

Track COSMOS 2315 now!
10-day predictions
COSMOS 2315 is classified as:


NORAD ID: 23603
Int'l Code: 1995-032A
Perigee: 972.8 km
Apogee: 1,020.5 km
Inclination: 82.9 °
Period: 104.9 minutes
Semi major axis: 7367 km
RCS: 2.3448 m2 (large)
Launch date: July 5, 1995
Source: Commonwealth of Independent States (former USSR) (CIS)
Your satellite tracking list
Your tracking list is empty





NASA's NSSDC Master Catalog

Two Line Element Set (TLE):
1 23603U 95032A   15210.45118400  .00000005  00000-0 -11032-4 0  9992
2 23603 082.9068 322.2447 0032343 098.6877 331.5824 13.72800862  5405

Source of the keplerian elements: AFSPC

N2YO: 328